GEFSNE_500_meanwind_114.txt.gz
Wind_Speed
38 37 37 38 40 39 40 41 41 40 41 42 43 43 43 43 44 44 44 44 44 42 42 41 40 40 39 37 36 35 33 32 30 29 27 25 24 24
37 37 38 40 40 40 40 41 41 42 42 42 42 42 43 43 44 44 44 45 45 44 43 42 40 39 38 36 35 33 32 30 29 27 26 25 24 23
40 41 41 41 40 40 41 41 41 41 41 41 42 43 44 44 44 44 45 45 44 43 42 40 39 38 36 35 34 32 31 29 27 26 25 24 23 22
41 42 42 42 41 41 41 41 41 40 41 42 43 43 44 44 44 44 44 44 43 42 40 39 38 37 35 34 33 32 30 28 27 26 25 24 23 23
41 42 42 41 41 42 41 41 41 41 41 42 43 44 44 45 45 44 44 43 41 40 38 37 37 36 35 33 32 31 29 28 27 26 26 25 24 23
42 42 42 42 42 41 41 41 41 42 43 43 43 43 44 44 43 43 42 40 39 37 37 36 36 35 34 33 32 30 29 27 27 27 26 25 24 24
42 42 42 42 41 41 42 42 42 42 43 43 42 42 42 41 41 40 39 38 37 37 36 36 35 35 34 33 31 29 28 27 27 26 25 25 24 24
42 42 42 42 42 42 42 42 42 42 42 41 41 41 40 40 39 38 38 37 36 36 36 35 35 34 33 32 30 29 28 27 27 26 26 26 25 25
43 43 42 42 42 41 41 41 41 41 40 40 39 39 38 38 37 36 36 35 35 35 35 34 33 32 31 30 30 29 28 27 28 27 26 26 26 26
41 41 41 41 40 40 39 40 39 39 39 39 38 38 37 37 36 36 36 35 35 35 34 33 32 31 31 30 29 29 28 28 28 27 27 27 27 27
40 40 40 40 39 39 39 39 39 39 38 38 37 37 37 37 36 36 35 35 35 34 33 32 31 31 31 30 29 29 29 28 28 28 28 27 27 27
40 40 40 39 39 39 38 38 38 37 37 37 37 37 37 36 36 35 35 34 33 33 32 32 31 31 30 29 29 29 28 28 28 28 28 28 28 28
39 39 39 39 39 38 37 37 37 37 36 36 37 37 36 36 36 35 34 33 33 32 32 31 31 30 30 29 29 29 28 28 29 29 29 28 28 29
39 39 38 38 38 37 37 37 37 36 36 36 37 36 36 35 34 34 33 32 32 31 31 31 30 30 30 29 29 29 29 29 29 29 29 29 29 29
39 38 38 37 37 37 37 37 37 37 37 36 36 36 35 35 34 33 32 32 31 31 31 30 30 30 29 29 29 29 29 29 29 30 30 30 30 30
38 38 37 37 37 37 37 37 37 37 36 36 35 35 34 33 33 33 32 32 31 31 31 30 30 30 30 30 29 29 29 30 30 30 30 31 31 31
38 37 37 37 37 37 37 37 36 36 35 35 34 34 33 33 33 33 32 32 31 31 31 30 30 30 31 31 30 30 30 30 31 31 31 32 32 32
38 37 37 37 37 37 37 36 36 35 35 34 34 34 33 33 33 33 32 32 31 31 31 31 30 31 31 31 31 31 31 31 32 32 32 33 33 33
38 38 38 38 37 37 37 36 36 35 35 35 34 34 33 33 33 32 32 32 31 31 31 31 31 32 32 32 32 32 32 32 32 32 33 33 34 34
39 38 38 37 37 37 36 36 36 35 35 35 34 34 34 33 32 32 32 32 32 32 32 32 32 33 33 33 33 33 33 33 33 33 34 34 35 35
39 38 38 38 37 37 36 36 35 35 35 34 34 34 33 33 33 33 33 33 33 33 33 33 33 34 34 35 34 35 35 35 35 35 35 35 35 36
38 38 37 37 37 36 35 35 35 35 35 34 34 34 34 34 34 34 34 34 34 35 35 35 35 35 35 35 36 36 36 36 36 36 36 37 37 37
38 37 37 37 36 36 36 36 36 35 35 35 35 35 35 35 35 35 35 36 36 36 36 36 36 36 36 36 36 37 37 37 37 37 38 38 38 38

GEFSNE_500_meanwind_120.txt.gz
Wind_Speed
43 42 41 41 41 39 38 37 37 36 36 36 37 37 37 38 39 39 40 40 40 41 42 43 44 44 44 43 41 39 37 35 34 32 30 28 26 25
44 44 43 42 40 39 39 39 38 37 37 37 37 38 38 39 39 39 40 41 41 41 42 44 44 44 43 42 40 38 36 34 33 31 29 27 26 24
46 45 42 41 41 41 40 40 39 38 37 37 38 38 38 39 40 41 41 41 41 42 43 43 44 43 42 41 39 37 35 33 32 30 29 27 25 24
46 46 45 43 42 41 41 40 39 38 38 38 38 39 40 40 40 41 42 42 42 42 43 43 42 41 40 39 37 35 34 32 31 30 29 27 25 23
48 47 45 43 41 40 40 40 39 39 39 39 39 40 41 41 41 41 42 42 42 42 42 42 41 40 38 37 36 34 33 32 31 30 28 26 24 23
46 45 42 41 41 41 41 40 40 40 41 40 40 40 40 41 41 42 42 42 41 41 41 40 39 38 37 36 34 34 33 32 31 29 27 26 25 24
43 42 42 42 41 42 42 42 42 43 42 41 41 40 41 41 41 41 41 41 40 40 40 39 38 36 36 35 34 33 32 31 30 29 27 25 24 23
43 43 43 43 42 43 43 43 42 41 40 40 40 40 41 41 41 41 40 40 40 39 38 37 36 35 34 34 33 32 31 30 29 28 26 25 24 23
42 43 44 43 43 43 42 41 40 40 40 40 40 40 40 40 40 40 40 39 38 37 36 35 35 34 34 33 32 31 30 30 28 27 26 25 24 23
44 44 44 44 44 43 42 41 40 40 40 40 41 40 40 40 39 39 38 37 37 36 35 34 34 34 33 32 31 30 29 28 27 26 26 25 24 24
42 42 42 42 42 42 41 41 41 41 41 40 40 39 39 38 38 38 37 36 36 35 35 34 34 34 33 32 31 29 28 28 27 26 26 25 25 25
40 40 40 41 42 41 40 40 40 40 40 39 38 38 38 38 37 37 36 36 35 35 35 34 34 33 32 31 30 29 28 27 27 27 26 25 25 26
41 41 41 41 41 41 40 40 39 39 39 38 38 38 38 37 37 37 36 36 35 35 35 34 33 33 32 31 30 29 28 27 27 26 26 26 26 26
40 40 40 40 41 40 40 40 39 39 39 39 38 38 37 37 37 37 36 36 35 35 35 34 33 32 31 30 30 29 28 28 27 27 27 27 27 27
39 39 39 39 39 40 40 39 39 39 39 38 38 37 37 37 37 37 36 36 35 35 34 34 33 32 31 30 30 29 29 28 27 27 27 27 27 27
39 39 40 40 39 38 39 39 39 39 38 37 37 36 36 36 36 36 36 35 34 34 34 33 32 32 31 30 30 29 29 28 28 27 27 27 27 28
38 39 39 39 38 38 38 38 38 38 37 37 37 36 36 36 36 35 35 34 33 33 33 32 31 31 30 30 29 29 29 29 28 28 28 28 28 29
38 38 38 38 38 38 38 38 38 37 37 37 37 36 36 36 35 35 35 34 34 33 32 31 31 31 31 30 30 30 30 29 29 29 29 29 29 30
38 37 37 37 38 38 37 37 37 37 37 37 37 36 36 35 35 35 34 34 34 33 32 32 32 31 31 31 30 30 30 30 30 30 30 30 30 31
38 38 38 38 37 37 37 37 37 36 36 36 36 36 35 35 35 34 34 34 33 33 33 32 32 32 31 31 30 30 30 30 30 30 30 31 31 32
38 38 38 38 38 38 38 37 37 37 36 36 36 36 36 35 35 34 34 33 33 33 33 33 32 32 32 31 31 31 31 31 31 31 31 31 32 32
38 39 39 39 39 39 38 38 38 37 37 37 36 36 36 35 35 35 34 33 33 33 33 33 33 33 32 32 32 33 33 33 33 32 33 33 33 32
38 38 38 38 38 39 38 38 38 38 37 37 36 36 36 35 35 35 35 34 34 34 34 34 34 34 34 34 34 34 34 34 34 34 34 34 34 34

GEFSNE_500_meanwind_126.txt.gz
Wind_Speed
50 50 48 47 47 46 45 45 44 42 41 41 40 40 40 40 40 39 39 39 39 39 39 39 40 40 41 41 41 41 40 40 38 36 35 33 32 30
48 47 46 46 47 46 46 46 46 45 44 43 42 42 42 41 41 40 40 40 40 40 40 40 40 41 41 42 42 41 40 40 37 36 34 32 31 30
48 47 46 46 47 46 46 47 47 47 46 45 44 43 43 42 42 42 42 41 41 41 41 41 41 41 42 42 42 41 40 39 37 35 33 31 30 29
48 47 47 47 47 47 47 48 48 47 47 46 45 44 43 43 43 43 42 41 42 42 42 42 42 42 42 42 42 41 39 37 35 33 32 31 30 28
49 48 48 48 48 48 49 48 48 47 47 46 46 45 44 43 43 42 42 42 42 42 43 43 42 42 42 41 41 39 37 36 34 33 32 30 29 28
48 49 49 49 49 49 49 49 49 47 46 45 44 44 45 44 43 43 43 43 43 43 43 43 43 42 41 41 40 38 36 35 34 33 31 30 29 28
49 48 49 49 48 48 48 47 48 47 45 44 43 44 44 44 43 43 43 43 43 43 42 42 41 41 40 40 39 37 35 34 33 32 31 29 28 27
48 48 47 47 47 47 46 46 47 46 45 45 44 44 45 45 44 44 44 44 44 43 42 42 41 40 39 39 38 36 35 34 33 31 30 29 27 27
47 47 46 46 46 46 46 47 47 46 46 45 44 44 45 45 44 43 43 43 43 43 42 42 40 39 38 38 37 35 34 33 32 31 29 28 27 27
45 45 45 45 45 46 45 45 46 45 45 45 44 44 45 43 42 43 43 43 42 42 42 41 40 39 38 37 36 35 33 32 31 30 29 28 27 26
44 45 46 46 46 46 45 44 44 44 44 44 44 45 44 44 43 44 43 43 42 42 41 40 39 38 37 36 36 34 33 32 31 30 29 28 28 27
45 45 45 46 46 46 46 45 45 45 45 45 44 44 44 44 43 43 43 42 42 41 40 39 39 38 37 36 36 34 33 32 31 30 29 29 29 28
45 45 45 46 45 45 46 46 46 45 45 45 45 43 43 43 42 42 41 41 41 40 40 39 38 37 37 36 35 34 33 32 31 30 29 29 28 28
46 46 45 44 44 45 46 46 45 45 45 44 44 43 42 42 42 41 41 41 40 39 39 38 38 37 36 36 35 34 33 32 31 30 29 29 29 28
45 45 44 43 44 45 45 44 44 44 44 43 42 42 42 42 41 40 40 39 39 39 38 38 37 37 36 35 34 33 32 31 30 30 29 29 29 29
44 44 44 44 43 42 42 42 42 42 42 41 41 41 41 41 40 40 39 39 38 38 37 37 36 36 35 34 34 33 32 31 31 30 30 30 29 29
42 43 43 43 43 43 43 42 41 41 40 39 39 39 40 39 39 38 38 38 37 37 36 36 36 35 35 34 33 32 32 32 31 31 31 30 30 29
41 42 43 43 42 42 42 41 41 40 39 38 38 38 38 38 38 38 38 37 37 37 36 36 36 35 34 34 33 33 32 32 31 31 31 30 30 29
41 41 41 41 41 41 41 40 40 39 40 39 39 38 38 38 38 38 38 37 36 36 36 35 35 34 34 34 33 33 32 31 31 31 30 30 30 29
40 40 41 41 40 40 40 40 40 39 39 39 39 39 39 39 38 38 37 37 36 35 35 35 34 34 34 34 33 33 32 31 31 31 31 31 30 30
39 39 40 40 39 39 39 40 40 39 39 39 39 39 39 39 38 38 37 36 36 35 35 35 35 34 34 34 33 33 32 32 32 32 31 31 31 31
38 38 39 39 40 40 39 39 39 39 40 40 39 39 39 39 39 38 37 37 36 36 36 36 35 35 35 34 34 34 33 33 33 32 32 33 33 33
39 40 40 40 41 40 40 40 39 40 40 40 40 39 39 39 38 38 37 37 36 36 36 36 35 35 35 35 35 35 34 34 34 34 34 34 34 34

GEFSNE_500_meanwind_132.txt.gz
Wind_Speed
51 51 51 51 51 51 50 50 50 50 50 49 48 45 45 44 44 44 43 42 42 42 42 43 42 43 43 42 41 41 40 40 40 40 39 37 36 34
53 53 52 51 51 51 50 50 51 51 48 46 46 47 46 44 43 44 44 43 43 43 43 42 42 43 42 42 41 40 39 40 40 39 38 37 35 33
55 54 53 52 51 52 51 51 51 50 48 46 45 46 47 46 45 44 44 44 44 44 43 43 43 43 43 42 41 40 40 39 39 38 37 35 34 33
56 55 54 52 51 51 50 50 50 50 48 47 46 45 45 46 47 46 45 44 43 44 44 43 43 42 42 42 41 40 39 39 38 37 36 35 34 33
54 55 53 53 53 52 51 50 49 49 48 48 47 46 46 45 45 46 47 46 45 44 43 43 42 42 42 42 40 40 39 38 37 37 35 34 33 32
53 53 53 53 52 51 51 50 49 49 48 49 48 47 46 45 46 46 46 46 46 44 43 43 43 43 42 41 39 39 38 37 36 35 35 34 33 32
54 53 52 52 51 51 51 51 51 51 50 50 49 48 47 46 45 45 46 46 46 45 44 43 43 43 42 40 39 38 37 36 36 35 35 34 33 31
51 51 51 51 51 52 52 52 52 52 51 51 50 48 47 47 47 47 45 45 46 46 44 43 42 41 40 39 38 37 37 36 35 35 35 34 32 31
50 51 52 53 53 53 53 52 53 53 52 52 51 50 48 47 48 48 47 46 46 45 44 42 42 41 39 38 38 37 37 36 36 35 34 33 32 31
49 50 51 52 53 52 52 52 53 52 52 52 51 50 49 49 48 47 46 46 45 44 43 43 41 40 39 38 37 36 35 35 35 34 34 33 32 31
46 47 48 49 50 50 51 51 50 50 51 51 51 51 50 49 48 47 45 44 43 43 42 41 40 40 38 37 36 36 36 35 34 33 33 32 31 30
46 47 48 48 49 49 50 50 49 49 50 50 50 50 50 49 49 47 44 43 43 43 42 41 40 39 38 37 36 36 35 35 34 33 32 31 30 29
44 46 47 48 49 49 48 49 49 49 49 48 48 49 48 47 46 45 44 43 43 42 41 40 39 38 37 36 35 35 34 34 33 32 31 31 30 29
43 44 44 46 47 47 47 47 48 49 48 48 48 47 47 46 45 43 42 42 41 41 40 38 37 37 36 35 35 34 33 33 32 32 31 30 30 29
41 41 41 42 43 44 45 45 45 46 47 47 46 46 45 44 44 44 43 41 40 38 37 36 36 37 36 35 34 33 32 31 31 31 30 29 29 29
40 41 42 42 43 43 43 43 43 44 44 44 44 44 44 43 43 42 41 39 38 37 37 37 37 36 35 34 33 32 31 31 31 31 30 29 29 29
38 38 39 41 41 41 40 39 40 40 41 42 43 42 42 42 41 40 39 37 37 37 37 37 37 36 35 33 33 32 31 31 31 30 30 29 29 29
38 37 37 38 39 40 40 40 40 40 40 41 41 41 41 41 40 40 39 38 36 36 35 35 36 35 34 33 32 32 31 30 30 30 29 30 30 29
38 38 38 37 37 38 38 39 39 40 39 39 39 39 39 40 39 38 38 38 36 35 34 34 34 33 32 31 31 31 30 30 30 30 30 30 30 30
37 38 38 37 37 37 37 38 39 39 38 38 39 39 39 38 37 37 36 36 36 35 35 34 34 33 32 32 31 31 30 30 30 30 30 30 30 30
37 37 37 37 37 37 37 38 38 38 37 38 38 38 38 37 37 36 36 36 36 36 35 34 34 33 33 32 32 31 31 31 30 30 30 30 30 30
37 37 37 37 37 37 37 37 37 37 37 38 37 37 37 37 37 36 36 36 36 36 35 35 34 34 33 33 32 32 32 31 31 31 31 31 31 31
37 37 37 37 36 37 37 37 37 37 38 37 37 36 37 37 37 36 36 36 35 35 34 34 34 34 34 34 33 33 32 31 31 31 32 32 32 32

GEFSNE_500_meanwind_138.txt.gz
Wind_Speed
55 54 54 55 56 56 55 54 54 54 53 52 51 50 49 49 48 47 47 46 45 45 44 42 42 41 40 39 38 37 36 35 35 34 33 32 32 31
56 56 57 56 56 57 58 57 56 55 55 53 52 50 50 49 49 48 47 46 45 45 44 44 43 42 41 40 39 38 37 36 35 34 33 33 32 31
57 57 57 57 56 57 58 58 58 57 55 54 53 52 51 50 50 49 48 47 46 45 44 44 44 43 42 41 40 40 38 37 36 35 33 33 32 31
57 57 57 57 57 58 58 59 59 59 58 56 55 53 52 52 52 51 49 48 47 46 45 45 45 44 43 43 42 41 39 37 37 36 34 33 32 30
57 57 57 57 57 57 58 58 58 58 57 56 55 55 54 54 53 51 50 49 49 48 47 46 45 44 43 42 41 41 40 39 38 36 35 34 32 30
55 56 56 57 58 57 56 57 57 57 56 58 57 56 56 56 54 52 50 50 50 49 49 47 47 45 44 43 41 40 40 39 37 36 34 33 31 30
54 54 55 56 55 56 56 55 56 57 57 57 57 56 55 54 53 52 52 50 49 49 49 48 47 46 44 44 42 40 39 38 37 35 34 32 31 30
52 53 54 54 54 54 54 55 55 56 56 55 55 54 52 51 51 52 52 51 51 50 49 48 47 46 44 44 42 40 39 38 37 35 34 32 31 31
50 51 51 52 52 52 52 53 54 54 54 54 55 54 52 51 51 51 52 51 50 48 48 46 45 44 43 42 42 40 39 38 37 35 33 32 31 30
48 48 49 49 51 51 51 52 53 53 54 54 52 52 52 53 53 53 52 52 52 50 47 45 44 42 42 42 41 40 38 37 37 35 33 32 32 30
45 46 47 48 50 50 50 49 50 51 53 52 52 52 51 52 53 52 51 50 49 47 45 44 43 42 43 42 41 40 39 37 36 35 34 33 31 30
44 45 46 47 47 48 49 49 49 49 50 51 51 51 51 50 50 50 49 49 49 48 46 44 43 42 42 41 40 39 38 37 36 36 34 33 31 30
42 43 44 45 46 47 48 48 47 47 48 49 50 50 50 50 49 49 49 49 49 48 46 45 44 43 41 40 39 38 37 37 37 35 34 32 31 30
40 42 42 43 45 46 47 48 48 47 48 49 49 49 49 49 48 48 48 48 48 48 47 45 44 42 41 40 38 38 37 36 36 35 34 33 31 30
39 41 41 43 45 46 46 47 47 46 46 47 47 47 47 46 46 46 46 46 47 46 45 44 43 42 41 40 38 37 37 36 35 35 34 33 32 31
40 41 42 42 43 44 44 44 44 43 43 44 44 45 45 45 44 44 44 44 44 44 43 42 41 40 40 39 38 37 36 36 35 34 34 33 33 32
39 40 41 40 39 40 41 42 43 43 43 43 43 44 44 44 43 42 42 42 42 42 41 41 40 40 39 38 37 36 35 35 34 34 34 33 33 32
39 38 38 38 39 40 40 40 42 42 42 42 42 42 42 41 41 40 41 41 41 40 39 39 38 38 38 37 37 36 36 36 35 35 34 34 33 32
36 37 37 38 38 39 39 40 40 40 40 40 40 40 40 40 40 39 40 40 39 38 38 38 38 38 38 37 36 35 36 36 36 35 34 33 33 33
36 36 37 37 37 37 37 38 38 38 39 39 39 39 38 38 38 38 38 38 38 37 37 37 37 37 37 36 36 36 36 36 36 35 34 33 33 33
35 35 35 35 35 36 37 36 36 36 36 37 38 37 37 37 38 37 37 37 37 37 37 37 37 36 36 37 36 36 36 35 35 34 34 34 34 34
35 35 35 35 34 35 36 37 36 35 35 35 35 36 36 36 36 36 36 36 36 36 36 36 37 37 36 36 36 35 35 35 34 34 34 34 34 33
34 34 34 34 34 34 35 35 36 35 35 35 35 34 35 35 36 35 34 34 35 35 35 36 36 36 36 35 35 34 34 34 34 34 34 34 34 33

GEFSNE_500_meanwind_144.txt.gz
Wind_Speed
50 50 51 52 53 54 54 54 54 53 51 50 50 51 52 51 50 49 48 48 48 48 46 45 44 43 43 42 40 39 38 37 36 35 34 32 31 29
49 49 50 51 53 53 54 55 56 55 55 52 51 51 52 52 51 51 50 50 50 49 48 46 45 44 43 42 42 41 40 38 38 37 36 34 32 31
51 50 51 52 52 54 55 55 56 56 56 53 52 52 52 52 52 52 52 51 51 51 50 48 46 46 45 43 43 42 41 40 39 38 37 35 34 32
52 53 53 54 54 54 55 55 56 55 54 53 51 50 50 51 53 52 52 53 53 52 51 50 50 48 47 46 45 44 42 42 41 39 38 37 36 34
52 53 53 54 54 54 54 54 54 54 53 53 52 51 52 52 54 54 53 52 53 53 53 53 51 50 49 49 47 46 44 42 42 41 39 38 37 36
50 52 53 53 54 54 53 53 53 53 54 54 54 53 53 53 54 54 53 52 52 52 52 52 51 50 49 49 47 47 45 43 42 42 40 38 38 36
47 49 51 52 53 54 54 54 53 53 54 54 55 54 53 52 52 52 52 54 53 52 51 50 50 49 48 48 47 47 45 44 43 41 40 39 38 37
45 47 49 50 50 52 53 53 52 52 53 53 53 52 52 52 53 52 53 53 53 53 53 51 49 48 48 47 47 46 45 44 43 41 40 39 38 37
43 45 46 47 48 49 51 52 52 53 53 53 52 51 50 52 53 52 52 52 51 51 51 51 50 49 47 47 45 45 44 43 43 41 40 39 38 37
43 43 43 44 46 48 49 50 51 52 51 52 51 51 51 51 52 52 51 51 51 50 49 49 48 48 46 44 44 43 43 43 42 41 39 38 37 36
40 41 42 42 43 45 46 48 49 50 51 51 50 50 51 52 52 51 51 51 50 48 48 47 46 47 46 44 43 43 42 41 42 41 39 36 36 35
38 39 39 41 41 42 44 44 46 47 48 49 49 49 51 51 51 50 50 50 50 49 48 47 46 46 45 44 42 41 41 41 41 41 39 37 35 34
36 36 37 38 38 40 41 42 43 44 45 47 49 49 49 49 49 49 48 49 50 49 48 47 46 45 44 43 43 42 41 42 42 41 39 37 36 35
34 35 35 36 37 37 38 39 40 41 42 44 45 47 47 47 47 47 47 47 48 48 47 47 46 46 45 45 45 43 42 42 43 41 39 38 37 36
34 35 35 36 36 36 37 38 40 41 42 42 43 44 44 45 44 44 45 45 46 46 46 46 45 45 45 45 45 44 43 42 41 40 39 39 38 37
35 36 36 36 37 38 38 39 40 41 42 42 41 42 43 43 43 43 43 43 43 43 44 44 44 45 44 43 43 42 41 40 40 39 39 38 37 37
38 38 38 38 38 38 38 39 39 40 40 40 40 40 40 40 41 41 40 40 41 41 41 41 42 42 42 41 41 40 39 40 39 38 38 38 37 37
39 39 39 39 38 39 39 39 39 40 39 38 38 37 38 37 37 39 38 38 39 39 39 39 38 38 39 39 39 39 38 38 38 38 38 38 38 37
39 39 40 39 39 39 39 39 39 39 38 37 37 36 36 36 36 37 38 37 38 38 38 38 39 38 38 39 38 39 38 38 38 38 38 38 37 37
40 40 40 40 40 39 39 39 39 39 38 37 37 36 35 36 36 36 36 36 37 37 37 38 38 39 39 39 38 38 38 38 38 38 38 38 38 37
39 39 39 38 38 38 38 38 38 38 37 37 36 35 34 35 35 35 35 35 36 36 37 38 38 38 38 38 38 38 37 37 37 37 37 37 38 37
38 38 38 37 37 36 36 36 36 36 36 35 35 33 33 33 33 33 32 33 34 34 35 37 37 37 37 36 35 36 36 36 36 36 37 37 37 36
38 37 37 36 36 35 34 33 33 33 33 32 32 31 31 31 31 31 31 31 32 32 33 33 33 33 34 34 35 35 35 35 35 36 35 35 35 36

GEFSNE_500_meanwind_150.txt.gz
Wind_Speed
50 50 50 50 49 49 49 50 52 52 53 53 53 51 50 50 51 51 51 51 50 50 50 48 47 47 46 45 44 44 44 43 42 41 40 40 39 38
50 50 49 49 51 51 50 50 52 53 52 51 52 51 51 52 52 53 52 51 51 51 51 51 49 48 48 47 46 47 46 46 45 44 42 42 42 40
49 50 50 50 51 52 51 50 52 53 53 52 53 52 52 52 52 52 52 53 52 50 51 53 52 50 50 49 48 48 48 47 46 45 43 42 42 41
48 50 50 50 51 52 52 51 52 53 54 54 53 53 53 53 53 52 52 53 52 51 50 52 52 52 51 50 50 49 48 47 47 45 44 43 42 42
47 49 49 50 50 52 53 52 52 53 54 55 55 55 54 53 53 53 52 52 52 52 52 52 51 50 51 50 49 49 48 47 47 45 44 43 42 41
45 47 48 49 50 50 52 52 53 54 54 54 55 54 53 53 54 54 54 53 52 51 51 52 52 50 49 49 49 49 49 48 47 46 44 43 42 42
42 44 45 48 49 49 51 52 53 54 53 53 54 54 53 53 53 54 54 53 52 52 51 51 53 52 49 48 50 50 50 49 47 46 45 43 42 42
41 42 44 46 48 49 50 51 53 52 52 52 52 54 54 54 54 54 53 53 52 51 51 50 51 51 51 49 49 50 50 48 46 46 45 44 43 43
41 42 43 45 46 47 49 50 52 52 51 50 51 52 54 54 54 53 54 54 53 52 52 50 51 52 52 51 50 50 50 49 47 46 46 45 43 42
39 41 42 43 44 44 46 47 49 51 51 51 51 51 51 51 51 52 54 54 53 52 52 51 51 52 52 51 51 50 50 50 48 47 47 45 44 43
37 37 37 38 40 41 43 44 46 47 49 49 50 50 50 50 51 51 52 52 52 51 52 52 51 52 51 50 51 50 50 49 48 47 46 44 43 43
37 37 38 39 40 41 42 42 43 44 46 47 47 48 49 49 50 50 51 52 52 51 51 51 51 51 51 50 49 49 48 47 47 46 44 43 42 43
37 39 39 40 40 41 42 42 42 42 43 44 44 45 46 47 47 48 49 50 50 49 49 49 49 50 49 48 47 46 47 47 46 46 46 44 44 43
37 38 40 41 42 42 42 42 42 42 42 43 43 43 44 45 46 46 47 48 49 48 47 47 47 47 47 46 45 44 46 46 46 45 46 45 44 44
38 39 40 41 42 42 43 42 42 42 42 42 43 43 44 44 44 44 44 44 46 46 46 46 46 46 46 44 43 43 43 44 44 44 45 46 45 45
39 40 41 42 42 42 43 43 43 44 43 42 42 42 43 44 43 42 42 42 43 44 45 44 44 44 42 41 41 42 42 43 43 43 44 45 45 44
39 41 41 42 42 42 43 43 43 43 43 43 43 43 43 43 43 42 41 40 40 41 41 42 43 41 39 39 40 42 42 43 42 43 43 43 43 42
40 41 41 42 42 42 42 42 42 42 43 43 43 42 42 42 42 41 41 40 39 38 38 39 40 39 39 39 39 41 42 42 43 42 42 42 41 41
41 41 42 42 42 42 42 42 42 42 42 42 42 42 42 42 42 41 40 39 37 36 37 37 38 38 38 38 38 39 39 40 42 42 42 41 41 41
42 42 43 43 42 42 42 42 42 42 42 42 41 41 41 41 41 40 39 38 37 36 36 36 36 37 37 38 38 38 38 39 40 41 41 41 41 42
42 43 43 42 42 41 41 41 41 40 41 41 41 41 40 39 39 38 37 37 36 36 36 35 35 35 36 37 36 36 37 37 38 38 39 41 41 42
43 42 42 41 41 41 40 39 39 39 39 39 40 40 39 39 37 36 35 35 35 34 34 33 33 33 34 34 34 34 34 35 36 37 37 39 41 41
42 41 41 40 40 39 38 38 38 37 37 37 37 38 38 37 35 33 32 32 31 32 32 32 32 32 33 32 32 32 33 34 35 36 37 37 38 39

GEFSNE_500_meanwind_156.txt.gz
Wind_Speed
47 48 49 49 50 50 50 50 51 50 49 50 49 49 50 49 49 49 50 49 50 50 51 51 51 50 49 48 48 47 46 44 43 42 42 42 41 41
44 46 48 49 49 50 49 49 51 51 51 50 51 51 52 52 51 51 51 52 52 53 53 53 52 51 50 49 49 48 48 47 45 45 44 43 43 42
41 43 46 47 49 49 49 49 50 50 50 51 52 52 52 53 53 53 53 53 54 54 54 53 53 52 51 50 50 49 48 48 47 45 45 44 43 42
40 42 44 46 48 49 48 48 49 50 50 51 52 53 53 53 53 53 53 54 54 54 54 53 53 53 52 52 52 51 50 50 50 48 46 46 45 44
42 42 43 44 45 47 47 48 49 50 51 51 52 53 52 53 53 53 54 55 55 55 54 54 54 53 53 52 52 51 50 51 51 50 48 48 47 47
42 42 43 44 45 45 47 48 49 50 51 51 52 53 53 54 54 54 55 55 55 55 54 54 54 54 53 52 52 51 50 51 51 51 51 50 49 48
40 41 43 44 43 44 45 46 48 50 51 52 52 53 53 53 54 54 55 55 55 55 54 54 55 54 54 53 52 51 50 51 51 51 51 52 51 50
38 40 41 43 43 44 44 46 47 48 50 51 52 52 53 52 52 53 54 55 54 54 55 55 55 55 54 54 53 52 52 52 52 51 50 51 51 51
38 39 41 42 43 44 45 47 48 49 49 49 50 50 51 51 52 52 53 53 53 53 53 52 53 53 52 53 53 52 51 51 51 51 50 50 50 50
38 39 41 42 43 44 45 46 47 48 49 50 50 49 50 50 51 52 51 51 51 51 52 51 50 50 50 51 51 51 52 52 53 52 51 50 48 48
37 38 39 40 41 43 45 46 47 48 48 48 49 48 48 49 50 50 49 49 49 48 48 49 49 49 48 49 49 50 52 53 53 53 52 51 50 49
37 37 38 39 40 42 43 45 45 46 46 46 46 47 47 48 49 49 48 48 48 47 47 47 47 47 47 47 48 49 49 49 49 49 49 49 48 48
36 37 38 39 40 41 42 43 44 45 45 45 45 45 46 47 48 49 48 47 47 46 46 47 47 47 47 46 46 46 47 47 46 46 46 45 46 46
35 36 37 39 40 40 41 42 42 43 44 44 45 45 46 47 48 49 49 48 47 46 46 46 47 47 48 47 46 45 45 46 45 44 43 43 43 44
36 37 38 39 40 40 40 41 42 43 44 44 45 46 46 47 47 48 49 49 48 47 46 46 46 46 46 45 44 43 43 43 43 42 42 42 42 42
36 37 37 38 39 40 40 41 42 43 44 45 45 46 46 47 46 47 47 48 47 46 46 46 45 45 45 44 43 42 42 41 40 40 41 41 41 41
36 37 38 39 40 40 41 41 43 44 45 46 46 46 47 46 46 46 46 46 46 45 45 45 45 44 43 43 41 41 41 41 40 39 39 39 40 39
37 37 38 39 41 41 42 43 44 45 45 45 46 46 45 45 45 45 45 46 45 45 44 44 43 42 42 42 41 41 40 39 39 39 39 39 38 39
38 38 39 39 40 41 42 43 44 45 45 45 45 45 44 44 44 45 44 45 45 44 44 43 41 40 39 39 39 39 38 37 38 38 38 38 37 37
39 40 40 41 42 43 44 44 45 45 45 45 45 44 44 44 44 44 43 43 43 42 41 41 39 37 37 37 37 37 37 37 37 37 37 37 37 37
40 41 42 43 44 44 45 45 45 44 44 44 43 43 43 43 43 43 42 42 41 40 39 38 37 36 35 35 35 34 35 35 35 36 36 36 37 37
41 41 42 43 44 45 45 45 44 43 43 43 43 42 43 42 42 41 41 40 39 38 37 35 35 34 34 34 34 34 34 34 34 35 35 35 36 36
42 42 43 44 44 44 44 44 43 42 41 41 42 42 42 42 41 41 40 39 38 37 35 34 33 33 32 32 32 32 32 32 32 32 33 34 34 35

GEFSNE_500_meanwind_162.txt.gz
Wind_Speed
48 49 49 49 48 48 48 49 48 48 49 48 49 48 48 49 50 50 50 50 50 50 49 48 48 48 48 47 46 47 47 47 47 47 46 46 45 44
46 47 48 48 48 48 47 48 48 48 49 49 50 50 50 50 51 51 51 51 52 52 52 51 51 50 50 50 49 49 49 49 49 48 48 47 46 45
47 47 47 47 48 48 48 48 48 48 49 50 50 50 50 49 49 51 51 52 52 52 52 52 52 52 51 51 51 51 52 51 52 51 50 48 47 46
45 46 46 46 47 48 48 48 48 49 50 51 52 52 51 50 50 50 52 53 53 54 53 54 53 53 53 53 53 53 53 53 52 52 51 49 48 48
43 44 45 45 46 48 49 49 49 50 50 51 52 52 52 52 52 51 52 53 54 54 54 54 54 53 53 53 54 54 55 54 53 51 50 48 48 48
40 41 43 44 45 47 48 49 49 50 50 51 51 52 52 52 52 52 53 54 54 54 55 55 55 55 54 54 54 55 55 54 52 51 49 49 49 49
39 40 42 44 45 46 48 48 49 49 50 51 51 51 52 53 53 53 53 53 53 54 55 55 55 55 55 55 54 54 54 53 52 52 51 51 50 49
37 39 41 43 44 45 47 48 49 49 49 50 50 50 50 51 51 52 53 53 52 53 54 54 55 55 55 55 54 54 53 53 52 52 52 52 51 51
37 38 39 41 43 44 46 46 48 49 50 50 50 50 50 50 51 51 52 52 53 53 54 53 53 53 53 54 54 54 53 52 52 53 52 52 52 52
37 38 38 40 42 43 45 46 48 49 49 49 50 51 51 52 52 53 52 53 53 54 53 52 51 52 52 53 53 53 53 53 53 53 52 52 53 53
36 36 38 39 40 42 44 45 47 47 48 48 49 50 51 51 52 52 52 52 52 52 53 53 52 52 51 52 52 53 53 54 54 54 53 53 53 54
33 35 36 37 38 40 41 43 45 45 45 46 47 48 49 50 51 52 52 52 52 51 51 52 52 51 50 50 51 52 52 52 52 51 52 53 54 54
30 32 33 34 36 38 39 41 42 43 44 45 46 47 48 49 50 51 51 52 52 51 51 51 51 51 50 49 49 50 50 50 49 50 51 51 51 51
29 30 32 33 35 37 38 39 40 42 43 44 45 46 47 48 49 50 50 51 51 51 50 51 50 50 50 49 47 46 47 47 48 48 48 48 47 47
30 31 33 34 35 36 37 38 38 39 41 42 43 44 45 46 47 48 48 49 49 49 49 50 50 49 49 47 46 46 45 46 47 47 46 45 45 44
31 32 33 34 35 35 36 37 38 39 40 40 41 42 43 44 45 46 47 47 47 48 48 49 49 49 47 47 46 45 44 45 45 44 43 42 42 42
32 33 33 34 35 35 36 37 38 39 39 40 40 41 42 43 44 45 46 46 46 46 47 47 47 47 47 46 45 44 44 44 43 42 41 40 40 40
33 33 34 35 36 36 37 38 39 39 39 39 40 41 41 41 42 43 43 44 44 45 45 45 46 46 46 46 45 43 43 42 42 41 40 40 39 38
34 35 35 36 37 38 38 39 39 39 38 39 39 40 41 42 42 43 43 43 44 44 44 44 44 45 45 44 43 43 42 41 41 40 39 39 39 38
34 35 36 37 38 39 39 39 39 39 39 40 40 41 41 42 42 42 43 43 43 43 43 43 43 43 43 43 42 41 41 40 40 40 39 38 38 37
36 37 38 38 39 40 40 40 40 39 40 41 41 41 42 42 42 43 43 43 43 43 42 42 42 42 41 41 40 39 39 39 38 38 38 37 37 37
37 38 39 40 40 40 41 41 40 40 41 42 42 42 42 43 43 42 42 42 41 41 40 39 39 39 39 38 37 36 36 36 36 36 37 37 36 37
39 39 39 40 40 41 41 41 41 41 42 42 42 42 43 43 42 42 41 40 40 39 38 38 37 37 37 36 36 35 35 34 35 35 35 35 36 36

GEFSNE_500_meanwind_168.txt.gz
Wind_Speed
45 46 47 47 48 49 49 50 50 50 49 48 49 49 50 50 50 49 50 51 51 50 50 50 49 49 50 49 48 48 48 46 46 45 45 45 44 44
46 46 46 47 48 48 49 50 51 52 52 50 50 49 50 50 50 50 50 51 52 51 52 51 51 50 50 50 50 50 49 49 49 48 48 47 46 45
45 45 45 46 47 47 48 49 50 51 51 50 50 49 50 49 49 49 50 50 51 52 52 53 53 52 52 52 53 52 52 51 51 50 49 48 48 47
43 43 44 45 45 46 47 47 49 50 49 49 49 49 50 49 49 50 51 52 50 50 52 53 54 53 53 53 54 54 53 53 52 51 50 50 49 49
40 41 42 43 44 45 45 46 47 48 48 49 49 49 50 51 51 51 52 53 52 51 52 53 54 55 55 53 53 53 52 53 53 53 52 51 51 50
38 38 40 41 43 45 46 46 46 46 47 48 49 49 50 51 52 52 51 52 52 52 53 52 53 53 53 53 52 52 53 53 53 53 53 53 53 52
37 38 39 41 42 43 43 43 44 45 47 47 49 49 50 51 52 52 52 52 53 54 54 54 54 54 53 53 53 53 53 53 53 54 54 54 54 53
36 37 38 39 40 41 42 42 43 43 45 46 47 48 49 49 50 51 52 52 53 53 54 54 54 53 53 54 54 54 55 54 55 55 54 54 55 54
36 37 37 38 39 40 41 42 43 43 44 45 45 47 47 47 48 51 52 53 53 53 54 53 53 54 54 55 55 55 56 55 55 55 55 55 55 55
36 37 37 37 38 39 40 41 41 42 43 43 44 44 45 46 47 48 49 51 52 53 54 53 53 54 54 55 55 55 56 56 55 55 55 55 54 53
34 34 35 36 36 37 38 38 38 39 40 41 43 44 45 46 46 47 47 48 49 50 52 52 53 53 54 55 55 54 54 54 54 54 54 53 53 53
31 32 33 33 34 35 35 35 36 37 38 39 40 41 42 43 44 45 46 47 47 49 50 52 52 52 51 52 53 53 53 53 53 53 53 53 52 52
30 31 31 31 32 32 33 34 34 35 36 37 38 39 41 43 44 45 47 47 47 47 49 50 51 51 50 49 49 49 50 51 52 52 51 51 52 51
30 30 30 31 31 32 32 33 33 34 35 36 37 39 40 42 43 45 46 47 47 46 47 48 49 49 48 48 46 46 48 49 49 49 49 49 50 50
30 30 30 30 30 31 32 33 33 34 36 37 38 39 41 42 43 44 45 46 46 46 45 45 45 46 46 46 45 45 45 46 47 48 47 47 48 48
30 30 30 30 30 31 32 33 34 36 37 38 39 40 42 43 44 44 44 44 44 44 45 44 44 45 45 44 44 44 44 45 45 46 46 46 46 46
30 30 30 30 31 31 33 34 35 36 37 39 40 41 41 42 42 43 43 43 44 43 43 44 44 44 45 45 45 45 44 44 44 44 44 44 44 44
31 31 32 32 32 33 33 34 36 37 38 40 41 41 41 41 41 42 43 42 42 42 42 43 43 43 44 44 45 45 44 43 44 44 43 42 42 44
32 32 33 33 34 35 35 35 36 38 38 39 39 39 40 40 40 41 41 40 41 41 42 43 43 43 43 42 42 44 44 43 43 43 42 41 40 40
33 33 33 34 35 35 36 36 36 37 37 38 38 40 40 40 40 40 40 40 41 41 42 43 43 43 42 41 40 41 42 42 41 40 39 39 38 37
33 34 34 35 36 36 37 37 37 37 38 38 39 40 40 40 40 41 41 41 41 41 41 42 42 42 41 40 39 38 39 40 40 39 38 37 36 36
33 34 34 35 36 36 38 38 39 39 39 39 40 40 40 40 40 40 40 41 41 41 41 40 40 40 40 39 39 38 37 38 38 38 36 35 35 34
34 34 34 35 36 37 38 39 39 39 39 39 40 39 39 39 39 40 40 40 40 40 39 39 38 38 39 39 39 38 37 37 36 36 35 35 34 33

GEFSNE_500_meanwind_174.txt.gz
Wind_Speed
43 44 44 44 45 45 46 46 47 47 47 48 49 49 50 51 51 51 52 52 52 52 52 52 52 51 51 52 52 52 52 51 50 49 48 48 47 46
43 44 44 44 45 45 46 46 47 47 46 46 48 49 50 51 51 51 51 52 53 53 53 53 53 53 52 52 52 52 52 52 52 52 51 49 49 49
43 44 44 44 45 45 46 47 48 47 47 46 48 49 49 50 50 50 50 51 52 52 52 52 53 53 53 52 52 52 53 54 54 53 52 51 51 51
43 43 44 44 44 45 46 48 47 47 47 47 48 49 50 50 50 50 50 50 51 51 52 52 52 53 54 54 53 53 54 54 54 54 54 54 53 52
43 43 43 43 44 45 46 46 46 47 47 48 48 49 50 51 50 50 50 50 50 51 52 53 53 52 53 54 53 54 55 55 56 56 56 55 55 53
42 42 43 44 44 44 44 45 45 46 46 47 47 47 48 49 49 49 49 49 49 50 51 52 52 53 53 54 53 53 54 55 57 56 54 54 54 54
41 42 42 42 42 42 43 43 44 44 45 45 46 46 47 48 48 48 48 48 48 49 49 51 51 52 53 53 54 54 55 55 56 56 55 55 55 55
39 40 39 40 41 41 42 42 43 43 44 44 43 44 44 44 45 46 46 47 48 49 50 51 52 51 52 53 53 54 54 56 56 57 56 57 57 57
38 38 38 39 39 40 40 40 41 42 43 42 42 42 42 43 44 44 44 45 47 48 49 49 50 50 52 53 54 54 55 55 55 56 56 56 57 57
36 36 36 36 37 37 38 39 40 40 41 42 42 42 42 42 43 43 43 44 45 46 47 48 50 51 52 53 53 53 54 54 55 55 56 56 57 57
34 34 34 35 35 36 37 37 38 39 40 41 41 42 41 41 41 42 42 42 43 44 45 47 47 48 49 50 51 52 53 54 55 55 55 56 57 56
33 33 33 33 34 35 36 36 37 38 39 40 40 41 40 40 40 40 41 41 42 43 44 46 46 47 47 47 49 50 50 51 53 54 54 54 55 55
32 32 33 33 34 35 36 37 37 37 38 38 39 39 39 39 40 40 41 41 41 42 43 45 46 47 47 46 47 48 50 51 51 52 52 52 53 53
32 32 32 33 34 35 36 36 36 37 37 37 37 37 37 37 38 39 40 41 42 43 43 45 46 47 47 46 46 47 49 50 50 50 51 51 52 52
32 32 33 33 34 34 34 34 34 35 35 35 35 35 36 37 38 38 39 40 41 42 43 44 45 45 46 46 46 46 46 46 46 47 48 50 50 51
32 32 32 32 32 33 33 33 33 33 33 34 34 35 36 37 38 38 39 40 41 41 43 44 44 45 45 45 45 45 45 45 45 46 47 48 49 49
31 31 31 31 32 32 31 31 32 32 33 33 34 35 35 36 38 38 39 40 41 42 43 44 44 44 45 45 45 45 46 45 46 46 46 46 47 48
31 31 31 31 31 31 31 31 32 32 32 33 34 34 35 36 38 39 39 40 41 41 42 43 43 43 44 44 45 46 46 46 46 46 45 45 45 47
31 31 31 31 31 31 31 32 32 33 33 34 34 35 36 37 38 39 39 40 41 41 42 43 44 44 43 43 44 46 46 45 45 45 45 45 44 45
31 32 32 32 31 31 32 32 32 33 33 34 35 36 36 37 38 39 39 40 41 41 42 43 43 43 44 44 43 43 45 44 43 43 43 44 43 43
31 32 31 31 31 31 32 32 32 33 34 34 35 36 37 37 38 39 39 40 40 41 41 41 42 42 43 43 42 41 42 43 43 42 41 41 41 41
31 30 31 31 32 32 32 32 33 33 34 35 36 37 37 38 38 39 39 39 40 39 39 39 40 40 40 40 40 39 39 40 41 41 40 39 39 39
31 31 31 32 32 32 31 32 32 33 34 35 36 36 37 37 38 38 38 38 38 38 38 38 38 38 38 39 39 38 38 38 38 38 38 38 37 37